This is the latest recevied weather packets stored in our database for station/object KY0TEQ-13. If no packets are shown the sender has not sent any weather packets the latest 10 day(s).
| Time | Temp. | Humidity | Pressure | Rain* | Wind** | Luminosity | Snow |
|---|---|---|---|---|---|---|---|
| 1788399649 | 19.44° C | 45% | 1307.8 hPa | 0 mm | - | 2 W/m² | - |
| 1788399349 | 19.44° C | 44% | 1307.6 hPa | 0 mm | - | 4 W/m² | - |
| 1788399044 | 20° C | 43% | 1307.7 hPa | 0 mm | - | 6 W/m² | - |
| 1788398743 | 20° C | 42% | 1307.4 hPa | 0 mm | - | 8 W/m² | - |
| 1788398443 | 20.56° C | 40% | 1307.6 hPa | 0 mm | - | 11 W/m² | - |
| 1788398143 | 21.11° C | 39% | 1307.7 hPa | 0 mm | - | 13 W/m² | - |
| 1788397837 | 21.11° C | 39% | 1307.7 hPa | 0 mm | - | 18 W/m² | - |
| 1788397533 | 21.67° C | 39% | 1307.7 hPa | 0 mm | - | 19 W/m² | - |
| 1788397231 | 21.67° C | 38% | 1307.4 hPa | 0 mm | - | 28 W/m² | - |
| 1788396931 | 22.22° C | 36% | 1307.6 hPa | 0 mm | - | 39 W/m² | - |
| 1788396627 | 22.78° C | 36% | 1307.8 hPa | 0 mm | - | 43 W/m² | - |
| 1788396326 | 22.78° C | 36% | 1307.7 hPa | 0 mm | - | 58 W/m² | - |
| 1788396022 | 23.33° C | 36% | 1307.7 hPa | 0 mm | - | 58 W/m² | - |
| 1788395717 | 23.89° C | 35% | 1307.7 hPa | 0 mm | - | 70 W/m² | - |
| 1788395413 | 23.33° C | 35% | 1307.6 hPa | 0 mm | - | 77 W/m² | - |
| 1788395112 | 23.89° C | 35% | 1307.8 hPa | 0 mm | - | 96 W/m² | - |
| 1788394807 | 23.33° C | 35% | 1307.6 hPa | 0 mm | - | 98 W/m² | - |
| 1788394506 | 22.78° C | 36% | 1307.6 hPa | 0 mm | - | 102 W/m² | - |
| 1788394195 | 22.22° C | 37% | 1307.6 hPa | 0 mm | - | 83 W/m² | - |
| 1788393886 | 22.78° C | 38% | 1307.3 hPa | 0 mm | - | 92 W/m² | - |
| 1788393584 | 22.78° C | 37% | 1307.3 hPa | 0 mm | - | 113 W/m² | - |
| 1788393278 | 23.33° C | 36% | 1307.6 hPa | 0 mm | - | 118 W/m² | - |
| 1788392972 | 23.89° C | 33% | 1307.1 hPa | 0 mm | - | 124 W/m² | - |
| 1788392667 | 24.44° C | 32% | 1306.9 hPa | 0 mm | - | 83 W/m² | - |
| 1788392361 | 24.44° C | 31% | 1306.8 hPa | 0 mm | - | 77 W/m² | - |
* Rain latest hour (hover to see other rain measurements)
** Current wind speed in m/s (hover to see current wind gust speed)